Location: Unspecified
(0.0000°N, 0.0000°E)
Time: 02:43:06
(UTC+00:00)

COSMOS 2508 - Pass Details

Date: 05 October 2020
Orbit: 1484 x 1504 km, 82.5° (Epoch: 20 October)

Event Time Altitude Azimuth Distance (km) Brightness Sun altitude
Rises 19:35:01 0° 209° (SSW) 4,626 ? -26.6°
Reaches altitude 10° 19:38:29 10° 220° (SW) 3,646 ? -27.5°
Maximum altitude 19:45:24 26° 273° (W) 2,592 ? -29.2°
Drops below altitude 10° 19:52:21 10° 326° (NNW) 3,647 ? -30.9°
Sets 19:55:53 0° 338° (NNW) 4,627 ? -31.8°
